Time,TemperatureF,DewpointF,PressureIn,WindDirection,WindDirectionDegrees,WindSpeedMPH,WindSpeedGustMPH,Humidity,HourlyPrecipIn,Conditions,Clouds,dailyrainin,SoftwareType,DateUTC
2014-10-25 00:23:00,77.0,69.0,29.83,North,5,3.0,11.0,76,0.00,,,0.04,,2014-10-25 04:23:00,
2014-10-25 00:53:00,78.0,70.0,29.83,NNE,22,4.0,11.0,76,0.00,,,0.04,,2014-10-25 04:53:00,
2014-10-25 01:23:00,76.0,69.0,29.83,NNW,346,3.0,6.0,78,0.00,,,0.04,,2014-10-25 05:23:00,
2014-10-25 01:52:00,73.0,67.0,29.83,North,355,2.0,6.0,81,0.00,,,0.04,,2014-10-25 05:52:00,
2014-10-25 02:22:00,72.0,67.0,29.83,NW,317,2.0,8.0,83,0.00,,,0.04,,2014-10-25 06:22:00,
2014-10-25 02:52:00,72.0,67.0,29.83,NNW,334,0.0,5.0,83,0.00,,,0.04,,2014-10-25 06:52:00,
2014-10-25 03:22:00,72.0,67.0,29.83,NNW,340,2.0,5.0,84,0.00,,,0.04,,2014-10-25 07:22:00,
2014-10-25 03:52:00,71.0,66.0,29.82,NNW,333,1.0,6.0,84,0.00,,,0.04,,2014-10-25 07:52:00,
2014-10-25 04:22:00,70.0,65.0,29.82,NNW,340,2.0,8.0,84,0.00,,,0.04,,2014-10-25 08:22:00,
2014-10-25 04:52:00,70.0,65.0,29.82,North,355,0.0,6.0,85,0.00,,,0.04,,2014-10-25 08:52:00,
2014-10-25 05:22:00,69.0,64.0,29.82,North,355,0.0,4.0,85,0.00,,,0.04,,2014-10-25 09:22:00,
2014-10-25 05:53:00,69.0,64.0,29.82,NNW,347,0.0,5.0,85,0.00,,,0.04,,2014-10-25 09:53:00,
2014-10-25 06:23:00,69.0,64.0,29.83,NNW,329,1.0,5.0,85,0.00,,,0.04,,2014-10-25 10:23:00,
2014-10-25 06:53:00,69.0,64.0,29.84,NNW,329,0.0,4.0,85,0.00,,,0.04,,2014-10-25 10:53:00,
2014-10-25 07:23:00,68.0,63.0,29.85,NNW,329,1.0,5.0,85,0.00,,,0.04,,2014-10-25 11:23:00,
2014-10-25 07:52:00,68.0,63.0,29.85,North,350,0.0,6.0,85,0.00,,,0.02,,2014-10-25 11:52:00,
2014-10-25 08:22:00,68.0,63.0,29.87,NNW,339,1.0,4.0,85,0.00,,,0.02,,2014-10-25 12:22:00,
2014-10-25 08:52:00,68.0,63.0,29.88,NNW,342,3.0,8.0,84,0.00,,,0.01,,2014-10-25 12:52:00,
2014-10-25 09:22:00,70.0,63.0,29.89,NNW,348,3.0,9.0,79,0.00,,,0.01,,2014-10-25 13:22:00,
2014-10-25 09:52:00,72.0,64.0,29.89,North,350,2.0,11.0,76,0.00,,,0.01,,2014-10-25 13:52:00,
2014-10-25 10:22:00,74.0,64.0,29.89,NNW,346,4.0,11.0,71,0.00,,,0.01,,2014-10-25 14:22:00,
2014-10-25 10:52:00,76.0,65.0,29.89,NNW,346,5.0,10.0,68,0.00,,,0.01,,2014-10-25 14:52:00,
2014-10-25 11:22:00,77.0,64.0,29.90,North,349,9.0,14.0,64,0.00,,,0.01,,2014-10-25 15:22:00,
2014-10-25 11:54:00,78.0,63.0,29.90,NNW,346,4.0,11.0,61,0.00,,,0.01,,2014-10-25 15:54:00,
2014-10-25 12:23:00,79.0,64.0,29.89,North,350,4.0,10.0,60,0.00,,,0.01,,2014-10-25 16:23:00,
2014-10-25 12:54:00,79.0,64.0,29.88,NNW,347,1.0,10.0,61,0.00,,,0.01,,2014-10-25 16:54:00,